Home > Time Zones > World Clock > Weather > Togo > Lome > Past weeks

Flag for Togo Weather past 2 weeks in Lome, Togo

Now
84 °F

Passing clouds.


Feels Like: 94 °F
Forecast: N/A
Wind: 10 mph from Southwest

Location: Lome Airport

Current Time: May 25, 2015 at 10:24:20 PM

Latest Report: May 25, 2015 at 9:00 PM


Visibility: N/A

Pressure: 29.89 "Hg

Humidity: 79%

Dew point: 77 °F

Location of LomeLocation

Historic Weather in Lome — Graph

°F

Lome temperature yesterday

Maximum temperature yesterday: 90 °F (at 1:00 PM)
Minimum temperature yesterday: 75 °F (at 4:00 AM)
Average temperature yesterday: 82 °F

Past Weeks' High & Low Weather Summary

 TemperatureHumidityPressure
High91 °F (May 11, 11:00 AM)100% (May 12, 3:00 AM)29.98 "Hg (May 12, 3:00 AM)
Low75 °F (May 14, 12:00 AM)59% (May 11, 12:00 PM)29.80 "Hg (May 11, 2:00 PM)
Average84 °F81%29.88 "Hg
* Reported May 10 9:00 PM — May 25 9:00 PM, Lome, Weather by CustomWeather, © 2015

Note: Actual official high and low records may vary slightly from our data, if they occured in-between our weather recording intervals... More about our weather records

Advertising

Lome weather history for previous 24 hours

 ConditionsComfort  
Time TempWeatherWind HumidityBarometerVisibility
9:00 PM
Mon, May 25
84 °FPassing clouds.10 mph79%29.89 "HgN/A
8:00 PM84 °FPassing clouds.12 mph79%29.89 "HgN/A
7:00 PM84 °FPassing clouds.12 mph79%29.86 "HgN/A
6:00 PM84 °FPassing clouds.12 mph79%29.86 "HgN/A
5:00 PM86 °FPassing clouds.12 mph75%29.83 "HgN/A
4:00 PM86 °FPassing clouds.13 mph75%29.83 "HgN/A
3:00 PM86 °FPassing clouds.13 mph75%29.86 "HgN/A
2:00 PM88 °FPassing clouds.12 mph66%29.86 "HgN/A
1:00 PM88 °FPassing clouds.9 mph70%29.89 "HgN/A
12:00 PM88 °FPassing clouds.8 mph70%29.92 "HgN/A
11:00 AM88 °FPassing clouds.9 mph66%29.95 "HgN/A
10:00 AM88 °FPassing clouds.7 mph70%29.95 "HgN/A
9:00 AM86 °FPassing clouds.7 mph70%29.95 "HgN/A
8:00 AM82 °FPassing clouds.3 mph89%29.95 "Hg5 mi
7:00 AM81 °FPassing clouds.No wind94%29.92 "Hg5 mi
6:00 AM77 °FPassing clouds.1 mph100%29.92 "HgN/A
5:00 AM79 °FPassing clouds.No wind94%29.89 "HgN/A
4:00 AM79 °FPassing clouds.No wind94%29.89 "HgN/A
3:00 AM79 °FPassing clouds.No wind94%29.89 "HgN/A
2:00 AM81 °FPassing clouds.1 mph94%29.89 "HgN/A
1:00 AM81 °FPassing clouds.No wind94%29.89 "HgN/A
12:00 AM82 °FPassing clouds.1 mph89%29.92 "HgN/A
11:00 PM
Sun, May 24
82 °FPassing clouds.5 mph84%29.92 "HgN/A
10:00 PM82 °FPassing clouds.9 mph84%29.95 "HgN/A
Weather by CustomWeather, © 2015

See weather overviewHow to use our weather pages